QPF
0.00 0.00 0.00 0.00 0.00 0.00 0.00 0.00 0.00 0.00 0.00 0.00 0.00 0.00 0.00 0.00 0.00 0.00 0.00 0.00 0.00 0.00 0.00 0.00 0.00 0.00 0.00 0.00 0.00 0.00 0.00 0.00 0.00 0.00 0.00 0.00 0.00 0.00 0.00 0.00 0.00 0.00 0.00 0.00 0.00 0.00 0.00 0.00 0.00
0.00 0.00 0.00 0.00 0.00 0.00 0.00 0.00 0.00 0.00 0.00 0.00 0.00 0.00 0.00 0.00 0.00 0.00 0.00 0.00 0.00 0.00 0.00 0.00 0.00 0.00 0.00 0.00 0.00 0.00 0.00 0.00 0.00 0.00 0.00 0.00 0.00 0.00 0.00 0.00 0.00 0.00 0.00 0.00 0.00 0.00 0.00 0.00 0.00
0.00 0.00 0.00 0.00 0.00 0.00 0.00 0.00 0.00 0.00 0.00 0.00 0.00 0.00 0.00 0.00 0.00 0.00 0.00 0.00 0.00 0.00 0.00 0.00 0.00 0.00 0.00 0.00 0.00 0.00 0.00 0.00 0.00 0.00 0.00 0.00 0.00 0.00 0.00 0.00 0.00 0.00 0.00 0.00 0.00 0.00 0.00 0.00 0.00
0.00 0.00 0.00 0.00 0.00 0.00 0.00 0.00 0.00 0.00 0.00 0.00 0.00 0.00 0.00 0.00 0.00 0.00 0.00 0.00 0.00 0.00 0.00 0.00 0.00 0.00 0.00 0.00 0.00 0.00 0.00 0.00 0.00 0.00 0.00 0.00 0.00 0.00 0.00 0.00 0.00 0.00 0.00 0.00 0.00 0.00 0.00 0.00 0.00
0.00 0.00 0.00 0.00 0.00 0.00 0.00 0.00 0.00 0.00 0.00 0.00 0.00 0.00 0.00 0.00 0.00 0.00 0.00 0.00 0.00 0.00 0.00 0.00 0.00 0.00 0.00 0.00 0.00 0.00 0.00 0.00 0.00 0.00 0.00 0.00 0.00 0.00 0.00 0.00 0.00 0.00 0.00 0.00 0.00 0.00 0.00 0.00 0.00
0.00 0.00 0.00 0.00 0.00 0.00 0.00 0.00 0.00 0.00 0.00 0.00 0.00 0.00 0.00 0.00 0.00 0.00 0.00 0.00 0.00 0.00 0.00 0.00 0.00 0.00 0.00 0.00 0.00 0.00 0.00 0.00 0.00 0.00 0.00 0.00 0.00 0.00 0.00 0.00 0.00 0.00 0.00 0.00 0.00 0.00 0.00 0.00 0.00
0.00 0.00 0.00 0.00 0.00 0.00 0.00 0.00 0.00 0.00 0.00 0.00 0.00 0.00 0.00 0.00 0.00 0.00 0.00 0.00 0.00 0.00 0.00 0.00 0.00 0.00 0.00 0.00 0.00 0.00 0.00 0.00 0.00 0.00 0.00 0.00 0.00 0.00 0.00 0.00 0.00 0.00 0.00 0.00 0.00 0.00 0.00 0.00 0.00
0.00 0.00 0.00 0.00 0.00 0.00 0.00 0.00 0.00 0.00 0.00 0.00 0.00 0.00 0.00 0.00 0.00 0.00 0.00 0.00 0.00 0.00 0.00 0.00 0.00 0.00 0.00 0.00 0.00 0.00 0.00 0.00 0.00 0.00 0.00 0.00 0.00 0.00 0.00 0.00 0.00 0.00 0.00 0.00 0.00 0.00 0.00 0.00 0.00
0.00 0.00 0.00 0.00 0.00 0.00 0.00 0.00 0.00 0.00 0.00 0.00 0.00 0.00 0.00 0.00 0.00 0.00 0.00 0.00 0.00 0.00 0.00 0.00 0.00 0.00 0.00 0.00 0.00 0.00 0.00 0.00 0.00 0.00 0.00 0.00 0.00 0.00 0.00 0.00 0.00 0.00 0.00 0.00 0.00 0.00 0.00 0.00 0.00
0.00 0.00 0.00 0.00 0.00 0.00 0.00 0.00 0.00 0.00 0.00 0.00 0.00 0.00 0.00 0.00 0.00 0.00 0.00 0.00 0.00 0.00 0.00 0.00 0.00 0.00 0.00 0.00 0.00 0.00 0.00 0.00 0.00 0.00 0.00 0.00 0.00 0.00 0.00 0.00 0.00 0.00 0.00 0.00 0.00 0.00 0.00 0.00 0.00
0.00 0.00 0.00 0.00 0.00 0.00 0.00 0.00 0.00 0.00 0.00 0.00 0.00 0.00 0.00 0.00 0.00 0.00 0.00 0.00 0.00 0.00 0.00 0.00 0.00 0.00 0.00 0.00 0.00 0.00 0.00 0.00 0.00 0.00 0.00 0.00 0.00 0.00 0.00 0.00 0.00 0.00 0.00 0.00 0.00 0.00 0.00 0.00 0.00
0.00 0.00 0.00 0.00 0.00 0.00 0.00 0.00 0.00 0.00 0.00 0.00 0.00 0.00 0.00 0.00 0.00 0.00 0.00 0.00 0.00 0.00 0.00 0.00 0.00 0.00 0.00 0.00 0.00 0.00 0.00 0.00 0.00 0.00 0.00 0.00 0.00 0.00 0.00 0.00 0.00 0.00 0.00 0.00 0.00 0.00 0.00 0.00 0.00
0.00 0.00 0.00 0.00 0.00 0.00 0.00 0.00 0.00 0.00 0.00 0.00 0.00 0.00 0.00 0.00 0.00 0.00 0.00 0.00 0.00 0.00 0.00 0.00 0.00 0.00 0.00 0.00 0.00 0.00 0.00 0.00 0.00 0.00 0.00 0.00 0.00 0.00 0.00 0.00 0.00 0.00 0.00 0.00 0.00 0.00 0.00 0.00 0.00
0.00 0.00 0.00 0.00 0.00 0.00 0.00 0.00 0.00 0.00 0.00 0.00 0.00 0.00 0.00 0.00 0.00 0.00 0.00 0.00 0.00 0.00 0.00 0.00 0.00 0.00 0.00 0.00 0.00 0.00 0.00 0.00 0.00 0.00 0.00 0.00 0.00 0.00 0.00 0.00 0.00 0.00 0.00 0.00 0.00 0.00 0.00 0.00 0.00
0.00 0.00 0.00 0.00 0.00 0.00 0.00 0.00 0.00 0.00 0.00 0.00 0.00 0.00 0.00 0.00 0.00 0.00 0.00 0.00 0.00 0.00 0.00 0.00 0.00 0.00 0.00 0.00 0.00 0.00 0.00 0.00 0.00 0.00 0.00 0.00 0.00 0.00 0.00 0.00 0.00 0.00 0.00 0.00 0.01 0.01 0.01 0.00 0.00
0.00 0.00 0.00 0.00 0.00 0.00 0.00 0.00 0.00 0.00 0.00 0.00 0.00 0.00 0.00 0.00 0.00 0.00 0.00 0.00 0.00 0.00 0.00 0.00 0.00 0.00 0.00 0.00 0.00 0.00 0.00 0.00 0.00 0.00 0.00 0.00 0.00 0.00 0.00 0.01 0.00 0.00 0.00 0.03 0.05 0.04 0.01 0.01 0.00
0.00 0.00 0.00 0.00 0.00 0.00 0.00 0.00 0.00 0.00 0.00 0.00 0.00 0.00 0.00 0.01 0.00 0.00 0.00 0.00 0.00 0.00 0.00 0.00 0.00 0.00 0.00 0.00 0.00 0.00 0.00 0.00 0.00 0.00 0.00 0.00 0.00 0.00 0.00 0.01 0.00 0.00 0.01 0.09 0.06 0.01 0.01 0.00 0.01
0.00 0.00 0.00 0.00 0.00 0.00 0.00 0.00 0.00 0.00 0.00 0.00 0.00 0.00 0.00 0.03 0.02 0.00 0.00 0.00 0.00 0.00 0.00 0.00 0.00 0.00 0.00 0.00 0.00 0.00 0.00 0.00 0.00 0.01 0.01 0.00 0.00 0.00 0.01 0.01 0.02 0.05 0.10 0.08 0.01 0.00 0.01 0.01 0.01
0.00 0.00 0.00 0.00 0.00 0.00 0.00 0.00 0.00 0.00 0.00 0.00 0.00 0.00 0.00 0.01 0.05 0.02 0.01 0.00 0.00 0.00 0.00 0.00 0.00 0.00 0.00 0.00 0.00 0.00 0.01 0.00 0.01 0.00 0.00 0.00 0.00 0.00 0.00 0.01 0.02 0.01 0.00 0.01 0.04 0.01 0.01 0.01 0.01
0.00 0.00 0.00 0.00 0.00 0.00 0.00 0.00 0.00 0.00 0.00 0.00 0.00 0.00 0.00 0.00 0.01 0.00 0.00 0.00 0.00 0.00 0.00 0.00 0.00 0.00 0.00 0.00 0.00 0.00 0.01 0.01 0.01 0.03 0.05 0.03 0.01 0.01 0.00 0.00 0.00 0.00 0.02 0.05 0.03 0.02 0.02 0.01 0.01
0.00 0.00 0.00 0.00 0.00 0.00 0.00 0.00 0.00 0.00 0.00 0.00 0.00 0.00 0.00 0.00 0.00 0.00 0.00 0.00 0.00 0.00 0.00 0.00 0.00 0.00 0.00 0.00 0.00 0.00 0.00 0.00 0.03 0.03 0.01 0.00 0.00 0.00 0.00 0.00 0.00 0.02 0.05 0.06 0.04 0.01 0.00 0.00 0.00
0.00 0.00 0.00 0.00 0.00 0.00 0.00 0.00 0.00 0.00 0.00 0.00 0.00 0.00 0.00 0.00 0.00 0.00 0.01 0.00 0.00 0.01 0.01 0.01 0.00 0.00 0.00 0.00 0.00 0.00 0.00 0.00 0.00 0.00 0.00 0.00 0.00 0.00 0.00 0.00 0.00 0.00 0.01 0.00 0.00 0.00 0.00 0.00 0.00
0.00 0.00 0.00 0.00 0.00 0.00 0.00 0.00 0.00 0.00 0.00 0.00 0.00 0.00 0.00 0.00 0.00 0.00 0.00 0.00 0.00 0.01 0.02 0.01 0.00 0.00 0.00 0.00 0.00 0.00 0.00 0.00 0.00 0.00 0.00 0.00 0.00 0.00 0.00 0.00 0.00 0.00 0.00 0.00 0.00 0.00 0.00 0.00 0.00
0.00 0.00 0.00 0.00 0.00 0.00 0.00 0.00 0.00 0.00 0.00 0.00 0.00 0.00 0.00 0.00 0.00 0.00 0.00 0.02 0.02 0.01 0.01 0.00 0.00 0.00 0.00 0.00 0.00 0.00 0.00 0.00 0.00 0.00 0.00 0.00 0.00 0.00 0.00 0.00 0.00 0.00 0.00 0.00 0.00 0.00 0.00 0.00 0.00
0.00 0.00 0.00 0.00 0.00 0.00 0.00 0.00 0.00 0.00 0.00 0.00 0.00 0.00 0.00 0.00 0.00 0.00 0.00 0.02 0.00 0.00 0.00 0.00 0.00 0.00 0.00 0.00 0.00 0.00 0.00 0.00 0.00 0.00 0.00 0.00 0.00 0.00 0.00 0.00 0.00 0.00 0.00 0.00 0.00 0.00 0.00 0.00 0.00
0.00 0.00 0.00 0.00 0.00 0.00 0.00 0.00 0.00 0.00 0.00 0.00 0.00 0.00 0.00 0.00 0.01 0.02 0.03 0.01 0.01 0.01 0.00 0.00 0.00 0.00 0.00 0.00 0.00 0.00 0.00 0.00 0.00 0.00 0.00 0.00 0.00 0.00 0.00 0.00 0.00 0.00 0.00 0.00 0.00 0.00 0.00 0.00 0.00
0.00 0.00 0.00 0.01 0.00 0.00 0.00 0.00 0.00 0.00 0.00 0.00 0.00 0.00 0.00 0.00 0.02 0.05 0.02 0.02 0.00 0.00 0.00 0.00 0.00 0.00 0.00 0.00 0.00 0.00 0.00 0.00 0.00 0.00 0.00 0.00 0.00 0.00 0.00 0.00 0.00 0.00 0.00 0.00 0.00 0.00 0.00 0.00 0.00
0.00 0.00 0.00 0.00 0.00 0.00 0.00 0.00 0.00 0.00 0.00 0.00 0.00 0.00 0.00 0.03 0.04 0.04 0.05 0.01 0.00 0.00 0.00 0.00 0.00 0.00 0.00 0.00 0.00 0.00 0.00 0.00 0.00 0.00 0.00 0.00 0.00 0.00 0.00 0.00 0.00 0.00 0.00 0.00 0.00 0.00 0.00 0.00 0.00
0.00 0.00 0.00 0.00 0.01 0.00 0.00 0.00 0.00 0.00 0.00 0.00 0.00 0.00 0.00 0.00 0.02 0.01 0.02 0.00 0.00 0.00 0.00 0.00 0.00 0.00 0.00 0.00 0.00 0.00 0.00 0.00 0.00 0.00 0.00 0.00 0.00 0.00 0.00 0.00 0.00 0.00 0.00 0.00 0.00 0.00 0.00 0.00 0.00
0.00 0.01 0.01 0.00 0.00 0.00 0.00 0.00 0.00 0.00 0.00 0.00 0.00 0.00 0.00 0.00 0.00 0.00 0.01 0.00 0.00 0.00 0.00 0.00 0.00 0.00 0.00 0.00 0.00 0.00 0.00 0.00 0.00 0.00 0.00 0.00 0.00 0.00 0.00 0.00 0.00 0.00 0.00 0.00 0.00 0.00 0.00 0.00 0.00
MSLP
1011.94 1011.06 1010.53 1009.37 1007.67 1004.83 1001.99 1000.76 1000.83 1000.57 1000.87 1001.48 1002.07 1002.06 1001.87 1002.43 1002.23 1003.08 1004.65 1005.31 1005.77 1006.96 1008.06 1009.23 1009.62 1010.09 1010.39 1010.83 1011.33 1011.75 1012.15 1012.45 1012.96 1013.28 1013.61 1013.96 1014.11 1014.38 1014.65 1014.79 1014.83 1014.89 1014.99 1015.14 1015.24 1015.38 1015.44 1015.39 1015.42
1011.07 1010.78 1009.89 1007.59 1005.82 1002.63 1001.00 1000.40 1000.41 1000.34 1000.53 1001.81 1002.23 1002.58 1002.45 1002.36 1003.33 1004.37 1004.88 1005.77 1006.32 1007.28 1008.28 1008.95 1009.84 1010.16 1010.58 1010.97 1011.47 1011.82 1012.41 1012.82 1013.23 1013.57 1013.87 1014.21 1014.35 1014.59 1014.86 1014.92 1014.96 1015.08 1015.24 1015.43 1015.54 1015.65 1015.77 1015.81 1015.85
1011.28 1010.52 1008.34 1006.48 1004.30 1001.59 1000.16 999.90 1000.26 1000.15 1001.33 1001.66 1001.77 1002.43 1002.22 1002.85 1003.95 1004.49 1005.13 1005.77 1006.53 1007.71 1008.17 1009.11 1010.08 1010.32 1010.77 1011.28 1011.77 1012.03 1012.40 1012.98 1013.58 1013.85 1014.11 1014.42 1014.67 1014.84 1014.95 1015.16 1015.23 1015.45 1015.61 1015.69 1015.86 1015.98 1016.03 1016.03 1016.04
1010.49 1009.85 1008.20 1005.34 1002.43 1001.64 1000.61 999.68 1000.38 1000.15 1001.12 1001.72 1001.89 1001.79 1002.95 1004.01 1004.05 1004.62 1005.76 1005.93 1006.71 1007.20 1008.05 1009.76 1010.31 1010.63 1010.92 1011.49 1011.97 1012.22 1012.64 1013.10 1013.65 1014.13 1014.48 1014.69 1014.98 1015.15 1015.31 1015.51 1015.66 1015.72 1015.87 1015.98 1016.01 1016.03 1016.08 1016.14 1016.11
1010.06 1007.88 1006.11 1004.25 1002.41 1001.41 1001.08 1000.42 1000.78 1000.34 1000.39 1000.79 1001.99 1001.58 1002.51 1004.00 1004.63 1005.23 1005.98 1006.35 1006.63 1007.26 1008.12 1009.69 1010.62 1010.88 1011.16 1011.59 1012.04 1012.39 1012.87 1013.38 1013.81 1014.23 1014.61 1014.91 1015.20 1015.42 1015.56 1015.71 1015.84 1015.90 1015.97 1016.04 1016.11 1016.13 1016.08 1016.03 1015.99
1008.73 1007.07 1004.51 1002.73 1001.91 1001.46 1001.39 1001.71 1001.27 1000.65 1000.23 1000.70 1001.73 1002.27 1002.86 1004.36 1004.63 1005.34 1006.02 1006.51 1006.88 1007.47 1008.46 1009.59 1011.01 1011.11 1011.48 1011.84 1012.15 1012.59 1013.15 1013.63 1014.05 1014.45 1014.79 1015.20 1015.45 1015.68 1015.89 1015.98 1015.99 1016.02 1016.10 1016.21 1016.32 1016.31 1016.22 1016.12 1015.98
1007.74 1006.14 1003.89 1002.52 1001.43 1000.97 1001.26 1001.95 1001.10 1000.73 1000.27 1000.45 1001.21 1001.66 1003.24 1004.43 1004.81 1005.44 1006.20 1006.83 1007.38 1008.07 1008.61 1009.58 1010.49 1011.33 1011.81 1012.17 1012.49 1012.98 1013.41 1013.92 1014.34 1014.71 1014.99 1015.42 1015.72 1015.89 1015.96 1016.02 1016.07 1016.14 1016.27 1016.28 1016.18 1016.17 1016.15 1015.99 1015.78
1008.07 1006.06 1004.04 1002.34 1001.15 1000.41 1001.55 1001.62 1001.41 1001.03 1000.28 1000.64 1001.74 1001.19 1001.72 1003.93 1005.18 1005.40 1006.12 1006.84 1007.40 1007.99 1008.49 1009.27 1010.07 1010.84 1011.47 1012.20 1012.87 1013.35 1013.68 1014.14 1014.55 1014.98 1015.16 1015.36 1015.64 1015.83 1015.98 1016.07 1016.18 1016.21 1016.16 1016.19 1016.24 1016.16 1016.03 1015.83 1015.57
1008.93 1006.40 1003.24 1001.86 1001.73 1001.32 1001.37 1001.70 1001.33 1001.38 1001.20 1001.09 1001.31 1001.73 1002.79 1004.60 1005.47 1005.37 1005.66 1006.32 1007.01 1007.69 1008.40 1008.93 1009.46 1010.40 1010.81 1011.69 1012.95 1013.70 1014.06 1014.48 1014.71 1015.04 1015.27 1015.17 1014.46 1015.07 1015.45 1015.68 1016.04 1016.14 1016.11 1016.04 1015.83 1015.74 1015.67 1015.48 1015.00
1008.18 1005.89 1003.33 1002.43 1002.24 1001.87 1001.52 1001.81 1001.16 1001.32 1001.32 1001.27 1001.27 1002.32 1003.80 1004.95 1005.59 1005.42 1005.33 1005.65 1006.35 1007.20 1008.16 1008.70 1009.11 1010.07 1010.65 1011.56 1012.84 1012.93 1013.50 1013.81 1013.93 1014.09 1014.66 1014.10 1014.56 1014.75 1014.91 1015.46 1015.96 1016.02 1015.96 1015.81 1015.67 1015.50 1015.36 1014.98 1013.49
1007.89 1005.68 1004.47 1003.23 1003.57 1003.03 1002.10 1001.91 1001.15 1001.05 1000.51 1000.60 1000.78 1001.62 1003.62 1004.70 1005.08 1005.44 1005.42 1005.53 1006.00 1006.88 1007.78 1008.61 1009.46 1010.06 1010.51 1011.15 1011.93 1012.32 1012.79 1013.19 1013.65 1013.96 1014.36 1014.38 1014.57 1014.79 1014.69 1014.52 1014.59 1014.80 1015.27 1014.60 1014.59 1014.35 1013.97 1013.88 1013.75
1007.98 1006.81 1005.91 1004.60 1004.59 1004.07 1003.07 1002.47 1001.58 1001.71 1000.67 1000.63 1001.86 1002.52 1003.35 1004.17 1004.44 1004.79 1005.15 1005.48 1006.17 1007.03 1007.96 1008.63 1009.53 1010.08 1010.44 1010.95 1011.47 1011.95 1012.13 1012.80 1013.19 1013.61 1014.40 1014.45 1014.50 1014.75 1014.84 1014.35 1014.45 1014.64 1014.44 1014.69 1014.30 1013.91 1014.01 1013.97 1013.67
1008.04 1007.07 1006.82 1006.23 1005.11 1004.85 1003.94 1003.00 1002.47 1001.63 1001.55 1001.76 1002.55 1003.06 1003.33 1004.12 1004.13 1004.50 1004.85 1005.60 1006.32 1007.12 1007.96 1008.59 1009.49 1010.15 1010.61 1011.29 1011.36 1011.77 1012.06 1012.50 1012.86 1013.61 1014.10 1014.12 1014.19 1014.65 1014.62 1014.61 1014.70 1014.78 1014.65 1014.47 1014.28 1013.89 1013.72 1013.74 1013.25
1007.65 1007.41 1006.81 1006.26 1005.44 1005.05 1004.39 1003.30 1002.53 1002.08 1002.17 1002.30 1002.62 1002.63 1002.96 1003.40 1003.97 1004.52 1004.88 1005.55 1006.42 1007.42 1008.30 1008.70 1009.74 1010.52 1011.11 1011.40 1011.67 1012.16 1012.32 1012.62 1013.00 1013.26 1013.58 1014.23 1014.18 1014.44 1014.44 1014.50 1014.52 1014.76 1014.81 1014.73 1014.57 1014.18 1014.11 1013.69 1013.29
1008.28 1007.93 1007.25 1006.28 1005.61 1004.84 1004.66 1003.37 1001.57 1001.93 1001.45 1002.12 1002.48 1002.76 1002.70 1002.68 1003.58 1004.38 1004.95 1005.80 1006.79 1007.74 1008.62 1009.03 1009.89 1010.64 1011.38 1011.53 1012.02 1012.08 1012.28 1012.38 1012.71 1013.04 1013.81 1014.09 1014.23 1014.43 1014.61 1014.40 1014.55 1014.74 1014.92 1014.76 1014.35 1014.29 1014.07 1013.84 1013.77
1008.38 1007.75 1005.98 1005.32 1005.28 1004.73 1004.75 1001.62 1001.84 1001.77 1001.76 1001.78 1002.08 1002.26 1002.74 1002.82 1003.30 1004.29 1004.99 1005.94 1006.83 1007.74 1008.68 1009.46 1009.85 1010.87 1011.66 1011.68 1011.86 1011.88 1012.18 1012.43 1012.79 1013.17 1013.46 1013.87 1014.03 1014.29 1014.49 1014.55 1014.76 1015.08 1014.62 1014.89 1015.10 1015.33 1014.82 1014.48 1013.49
1007.41 1005.78 1005.45 1004.50 1004.36 1004.34 1003.95 1002.28 1001.75 1000.99 1000.90 1001.14 1001.32 1001.68 1001.92 1002.71 1003.47 1004.17 1005.11 1005.94 1006.93 1007.82 1008.74 1009.63 1010.21 1011.38 1011.72 1011.73 1011.72 1011.93 1012.76 1012.44 1012.87 1013.17 1013.30 1013.83 1013.85 1014.18 1014.47 1014.72 1015.11 1015.40 1014.68 1014.18 1014.81 1015.21 1015.28 1014.82 1013.97
1005.91 1005.94 1004.92 1004.21 1003.89 1003.94 1003.03 1002.66 1001.70 1001.31 1000.94 1000.80 1001.00 1001.13 1001.45 1002.41 1002.93 1004.07 1005.13 1005.90 1007.00 1007.77 1008.88 1009.95 1010.56 1011.01 1011.29 1011.51 1011.70 1011.82 1012.32 1012.57 1012.82 1013.67 1013.86 1013.76 1013.91 1014.09 1014.22 1014.60 1014.70 1014.43 1014.74 1014.26 1012.93 1015.13 1015.14 1015.13 1014.47
1007.55 1006.68 1005.38 1004.58 1004.18 1003.89 1002.74 1002.35 1001.60 1001.37 1001.01 1000.55 1000.48 1000.74 1001.07 1001.87 1003.38 1003.85 1005.03 1006.19 1007.10 1007.91 1008.89 1009.55 1010.29 1010.81 1011.00 1010.96 1010.88 1011.43 1011.83 1012.70 1013.61 1013.81 1013.93 1013.82 1013.77 1013.88 1013.73 1013.67 1014.28 1014.30 1013.64 1014.25 1013.23 1015.58 1015.32 1015.20 1014.68
1008.05 1007.10 1006.07 1005.53 1005.08 1004.65 1003.15 1002.03 1001.54 1001.01 1000.68 1000.50 1000.34 1000.46 1000.81 1001.16 1002.31 1003.38 1004.67 1005.83 1006.91 1007.83 1008.62 1009.34 1009.95 1010.62 1010.60 1010.68 1010.76 1011.20 1012.00 1013.05 1013.74 1013.85 1014.14 1014.29 1014.43 1014.56 1014.71 1014.73 1015.20 1015.20 1014.14 1014.35 1014.56 1015.99 1016.06 1015.28 1014.64
1007.93 1007.22 1006.32 1005.80 1004.85 1004.54 1003.71 1001.88 1000.99 1000.46 1000.34 1000.17 1000.19 1000.12 1000.18 1000.53 1001.43 1002.91 1004.22 1005.38 1006.29 1007.51 1008.44 1009.10 1009.78 1010.24 1010.37 1010.90 1011.55 1012.36 1013.04 1013.37 1013.48 1013.68 1014.20 1014.83 1014.94 1015.01 1015.16 1015.47 1015.52 1015.23 1015.39 1015.04 1015.60 1016.52 1016.42 1015.47 1014.63
1007.55 1007.42 1007.30 1006.48 1005.40 1002.99 1002.49 999.69 998.94 999.40 998.99 998.97 999.26 999.73 999.60 1000.02 1001.27 1002.39 1003.80 1004.76 1006.28 1007.13 1008.18 1009.10 1009.57 1010.17 1010.63 1011.01 1011.20 1011.66 1011.87 1012.23 1012.69 1013.11 1014.99 1015.49 1015.58 1015.55 1015.58 1016.26 1015.84 1015.97 1015.65 1015.25 1016.35 1017.03 1016.84 1016.51 1015.52
1007.87 1007.79 1007.13 1006.30 1005.08 1003.52 1001.88 1000.78 997.01 997.69 997.77 997.45 997.99 998.78 999.05 999.66 1000.67 1001.75 1003.20 1004.67 1005.50 1006.68 1008.24 1008.88 1009.43 1010.10 1010.51 1010.88 1011.17 1011.72 1011.79 1012.15 1013.22 1014.41 1015.29 1015.81 1016.22 1016.51 1016.35 1016.77 1016.35 1016.36 1016.13 1016.41 1017.11 1017.22 1017.33 1016.68 1016.63
1008.44 1008.00 1007.15 1006.20 1004.71 1002.78 1001.19 999.96 996.33 995.82 996.11 996.15 996.73 997.95 998.70 999.53 1000.43 1001.70 1002.74 1004.44 1006.63 1007.88 1008.99 1008.74 1009.51 1009.87 1010.54 1011.07 1011.46 1011.68 1012.10 1012.66 1014.01 1014.66 1015.25 1015.94 1016.34 1016.83 1017.04 1016.59 1017.00 1016.83 1016.95 1017.49 1017.50 1017.74 1017.81 1017.72 1017.61
1008.50 1007.62 1005.85 1004.91 1003.32 1000.96 999.84 999.35 996.78 995.03 995.24 995.16 995.57 997.00 998.29 999.47 1000.27 1001.31 1002.73 1004.67 1005.93 1007.01 1008.07 1007.78 1009.36 1010.15 1010.58 1010.98 1011.74 1012.08 1012.66 1013.53 1014.11 1014.47 1015.12 1015.53 1015.97 1016.42 1016.75 1017.19 1017.53 1017.49 1017.97 1017.95 1018.04 1018.37 1018.31 1018.18 1018.07
1007.60 1006.94 1004.66 1003.98 1002.07 1000.14 999.68 997.87 996.06 995.76 994.94 995.19 995.55 996.56 998.09 999.23 999.87 1001.24 1002.87 1004.18 1005.86 1006.62 1007.52 1008.49 1009.62 1010.72 1011.22 1011.62 1012.25 1012.74 1013.36 1013.53 1014.45 1015.01 1015.41 1015.63 1016.15 1016.97 1017.97 1018.04 1018.21 1018.28 1018.29 1018.36 1018.56 1018.66 1018.52 1018.69 1018.61
1006.91 1006.79 1005.85 1005.30 1002.57 999.90 997.99 997.42 996.14 995.59 995.32 994.81 995.02 996.22 997.71 999.21 1000.32 1002.05 1003.11 1004.39 1005.67 1006.58 1007.84 1008.95 1010.29 1010.99 1011.47 1012.00 1012.50 1013.16 1013.62 1014.22 1015.00 1015.53 1015.84 1016.48 1017.34 1017.92 1018.30 1018.59 1018.71 1018.63 1018.69 1018.86 1018.89 1019.00 1019.11 1018.97 1018.81
1006.92 1006.93 1006.63 1005.87 1002.63 999.79 997.32 995.90 994.84 994.57 994.67 994.76 994.71 996.24 997.82 999.66 1001.21 1002.64 1003.41 1004.44 1005.75 1007.15 1008.64 1009.91 1010.47 1011.10 1011.71 1012.31 1012.91 1013.67 1014.50 1015.03 1015.59 1016.25 1017.00 1017.59 1018.06 1018.44 1018.77 1018.97 1019.01 1019.18 1019.31 1019.40 1019.18 1019.05 1019.27 1019.18 1018.90
1007.04 1006.64 1005.88 1004.73 1002.76 999.85 997.12 995.01 994.37 993.52 994.23 994.41 994.64 996.34 998.29 999.94 1001.73 1003.12 1004.21 1005.91 1006.87 1007.75 1009.03 1009.88 1010.67 1011.40 1012.04 1012.81 1013.72 1014.20 1014.96 1015.74 1016.40 1017.08 1017.82 1018.27 1018.60 1018.88 1018.97 1019.08 1019.17 1019.43 1019.58 1019.55 1019.54 1019.60 1019.51 1019.36 1019.19
1006.20 1005.74 1005.31 1004.50 1002.63 1001.06 998.09 994.55 993.40 993.81 993.73 994.01 994.75 996.26 998.59 1000.46 1001.97 1003.94 1005.76 1006.80 1007.64 1008.44 1009.27 1010.11 1011.13 1011.77 1012.62 1013.41 1014.21 1014.91 1015.64 1016.46 1017.13 1017.82 1018.40 1018.78 1018.99 1019.10 1019.23 1019.33 1019.55 1019.52 1019.78 1019.91 1019.84 1019.75 1019.61 1019.37 1019.25
Thickness
5754 5763 5771 5773 5758 5775 5787 5804 5824 5818 5821 5837 5839 5835 5836 5839 5833 5821 5857 5860 5860 5852 5844 5836 5834 5831 5829 5827 5824 5821 5818 5816 5811 5809 5806 5803 5801 5798 5796 5795 5795 5793 5792 5790 5788 5785 5783 5781 5780
5754 5757 5761 5768 5750 5767 5788 5819 5809 5824 5834 5835 5834 5831 5831 5829 5844 5842 5846 5855 5855 5848 5842 5837 5831 5829 5827 5824 5822 5820 5814 5811 5808 5805 5803 5800 5799 5797 5794 5794 5794 5792 5790 5787 5784 5781 5778 5776 5774
5744 5751 5749 5747 5754 5766 5792 5818 5819 5829 5830 5828 5829 5837 5838 5831 5839 5843 5852 5853 5850 5842 5840 5834 5828 5827 5824 5821 5818 5817 5814 5809 5803 5802 5801 5798 5795 5795 5794 5791 5791 5788 5785 5783 5780 5777 5775 5773 5771
5736 5737 5741 5738 5758 5787 5800 5821 5818 5821 5825 5828 5831 5824 5837 5842 5841 5848 5847 5850 5845 5844 5838 5827 5824 5823 5822 5818 5815 5815 5811 5808 5803 5799 5796 5794 5791 5790 5789 5787 5785 5784 5781 5779 5778 5776 5774 5771 5770
5729 5738 5727 5733 5757 5786 5799 5814 5812 5812 5822 5826 5823 5823 5828 5837 5846 5845 5841 5842 5841 5840 5835 5825 5820 5817 5818 5816 5814 5812 5809 5805 5801 5797 5793 5790 5788 5787 5786 5785 5783 5782 5780 5778 5776 5774 5773 5773 5771
5711 5730 5725 5733 5755 5778 5789 5797 5803 5807 5821 5823 5816 5816 5824 5836 5838 5839 5840 5838 5840 5836 5829 5823 5814 5814 5812 5812 5811 5808 5804 5800 5797 5793 5789 5785 5784 5783 5781 5780 5780 5779 5777 5775 5772 5770 5770 5770 5770
5704 5714 5724 5743 5756 5765 5778 5791 5794 5802 5812 5815 5826 5812 5819 5822 5835 5837 5834 5833 5832 5828 5825 5819 5815 5809 5807 5807 5806 5803 5800 5795 5792 5789 5786 5782 5779 5778 5778 5778 5777 5776 5774 5772 5772 5771 5770 5770 5770
5695 5708 5713 5736 5745 5760 5775 5781 5796 5797 5804 5827 5824 5811 5818 5824 5828 5834 5832 5828 5826 5826 5824 5819 5814 5810 5805 5802 5800 5796 5795 5791 5788 5784 5783 5782 5779 5778 5776 5775 5774 5773 5773 5772 5770 5770 5770 5770 5771
5681 5680 5706 5730 5733 5752 5772 5765 5789 5802 5796 5805 5818 5819 5823 5820 5821 5825 5825 5824 5822 5821 5820 5820 5817 5810 5808 5803 5795 5791 5789 5786 5785 5782 5780 5782 5785 5780 5778 5776 5772 5771 5771 5771 5774 5773 5772 5771 5773
5661 5675 5707 5734 5740 5744 5759 5761 5776 5778 5783 5790 5805 5815 5816 5811 5810 5814 5818 5819 5818 5817 5815 5817 5817 5810 5806 5801 5793 5793 5789 5787 5788 5786 5782 5787 5783 5781 5778 5775 5771 5769 5769 5770 5770 5770 5770 5772 5780
5653 5669 5698 5713 5717 5737 5745 5751 5773 5771 5775 5794 5800 5810 5805 5803 5808 5809 5815 5819 5819 5818 5814 5814 5809 5806 5804 5802 5797 5795 5793 5791 5788 5786 5783 5783 5780 5777 5777 5778 5777 5775 5772 5774 5774 5774 5775 5774 5774
5629 5653 5668 5688 5704 5713 5725 5745 5751 5761 5780 5798 5790 5799 5802 5800 5806 5809 5811 5816 5816 5813 5810 5810 5806 5802 5801 5799 5798 5796 5797 5793 5790 5787 5780 5779 5777 5774 5774 5777 5775 5773 5773 5771 5772 5773 5770 5769 5769
5617 5637 5647 5669 5688 5700 5715 5722 5737 5753 5771 5784 5784 5787 5794 5795 5805 5811 5814 5814 5812 5808 5808 5809 5804 5799 5797 5795 5796 5795 5794 5792 5789 5783 5779 5777 5777 5772 5771 5771 5769 5767 5768 5767 5766 5767 5767 5765 5767
5613 5621 5637 5656 5674 5688 5696 5712 5731 5748 5761 5766 5772 5781 5791 5797 5801 5805 5809 5807 5807 5804 5801 5804 5798 5794 5791 5792 5791 5789 5788 5787 5784 5781 5779 5773 5773 5770 5768 5767 5766 5764 5763 5761 5758 5758 5756 5757 5759
5596 5602 5620 5640 5661 5676 5689 5692 5724 5744 5756 5753 5761 5771 5784 5796 5801 5799 5802 5801 5800 5796 5795 5795 5792 5790 5786 5787 5785 5785 5785 5784 5781 5779 5773 5771 5770 5767 5765 5765 5763 5759 5755 5753 5750 5746 5747 5750 5748
5580 5593 5608 5640 5652 5671 5675 5699 5715 5736 5741 5747 5756 5768 5775 5788 5796 5797 5798 5798 5797 5795 5789 5787 5789 5784 5780 5783 5783 5782 5780 5779 5777 5775 5774 5771 5770 5766 5764 5760 5756 5751 5751 5744 5740 5735 5736 5738 5742
5583 5598 5604 5630 5654 5663 5671 5682 5705 5733 5739 5743 5755 5766 5776 5781 5787 5791 5793 5794 5792 5790 5786 5781 5780 5772 5774 5777 5779 5778 5772 5777 5774 5773 5773 5769 5768 5763 5758 5754 5749 5743 5744 5746 5738 5731 5729 5728 5735
5587 5587 5608 5618 5644 5654 5665 5671 5696 5717 5728 5738 5749 5763 5773 5774 5782 5785 5787 5790 5788 5786 5780 5775 5774 5774 5776 5777 5778 5778 5775 5775 5774 5767 5765 5765 5762 5758 5755 5748 5747 5745 5738 5738 5746 5729 5721 5720 5726
5574 5581 5595 5614 5631 5638 5654 5666 5687 5706 5717 5730 5744 5755 5767 5772 5774 5782 5782 5781 5780 5778 5774 5774 5771 5773 5776 5778 5779 5776 5775 5771 5763 5761 5760 5759 5757 5756 5754 5752 5743 5736 5743 5727 5737 5720 5716 5715 5718
5566 5574 5586 5603 5616 5624 5642 5660 5681 5696 5711 5725 5738 5751 5761 5773 5776 5779 5779 5778 5775 5772 5773 5773 5773 5772 5777 5780 5781 5778 5772 5763 5757 5755 5752 5749 5747 5744 5743 5737 5723 5716 5731 5732 5726 5710 5704 5705 5710
5564 5569 5581 5588 5608 5621 5627 5647 5672 5695 5708 5722 5734 5749 5764 5773 5777 5778 5776 5775 5774 5771 5771 5772 5772 5771 5775 5774 5770 5764 5758 5755 5752 5751 5746 5739 5735 5735 5733 5725 5718 5716 5710 5718 5709 5700 5695 5697 5705
5559 5571 5570 5577 5590 5614 5637 5659 5684 5691 5706 5721 5734 5744 5761 5773 5775 5777 5773 5772 5767 5769 5771 5768 5769 5767 5768 5768 5767 5762 5759 5754 5754 5751 5735 5727 5725 5724 5726 5714 5716 5714 5714 5712 5701 5693 5689 5687 5688
5556 5564 5570 5578 5589 5604 5626 5632 5693 5699 5697 5720 5735 5746 5761 5771 5776 5776 5772 5770 5772 5767 5762 5764 5763 5761 5764 5763 5763 5758 5756 5755 5747 5737 5728 5720 5715 5712 5715 5709 5709 5709 5703 5697 5692 5687 5679 5682 5678
5553 5556 5566 5577 5591 5592 5621 5638 5680 5696 5711 5731 5746 5750 5759 5766 5772 5772 5776 5770 5754 5752 5749 5759 5756 5758 5759 5758 5756 5754 5750 5746 5733 5729 5722 5716 5713 5709 5706 5705 5702 5700 5694 5686 5684 5678 5672 5670 5666
5543 5550 5565 5570 5582 5608 5640 5627 5668 5720 5729 5741 5750 5752 5758 5763 5767 5768 5765 5757 5757 5756 5754 5763 5751 5749 5752 5752 5748 5747 5743 5735 5729 5726 5720 5716 5713 5708 5704 5699 5693 5690 5682 5679 5675 5666 5664 5661 5658
5542 5553 5576 5556 5586 5619 5630 5625 5671 5705 5725 5739 5750 5755 5756 5759 5767 5764 5759 5757 5753 5755 5754 5754 5748 5738 5741 5742 5739 5738 5734 5732 5723 5718 5715 5713 5708 5701 5691 5689 5683 5680 5677 5673 5665 5661 5658 5653 5647
5544 5541 5566 5556 5592 5611 5636 5648 5680 5694 5706 5724 5739 5746 5747 5747 5751 5749 5752 5752 5752 5752 5750 5748 5737 5732 5735 5734 5734 5730 5728 5721 5715 5712 5710 5706 5698 5691 5685 5679 5675 5673 5669 5663 5658 5654 5647 5645 5643
5541 5548 5537 5550 5566 5592 5635 5646 5660 5683 5692 5713 5730 5734 5740 5742 5742 5742 5747 5751 5750 5746 5744 5736 5733 5730 5730 5729 5727 5722 5716 5711 5707 5704 5699 5693 5687 5681 5676 5672 5669 5665 5660 5654 5652 5650 5645 5641 5638
5532 5535 5550 5565 5583 5599 5624 5648 5686 5697 5699 5709 5730 5736 5733 5736 5735 5736 5738 5734 5736 5740 5736 5731 5727 5725 5723 5720 5716 5714 5707 5701 5698 5694 5687 5682 5678 5674 5672 5668 5665 5660 5655 5651 5647 5642 5638 5634 5630
5542 5544 5550 5548 5569 5591 5619 5652 5699 5699 5706 5721 5732 5739 5734 5734 5733 5727 5720 5722 5726 5729 5728 5723 5719 5718 5714 5712 5708 5702 5698 5691 5687 5683 5678 5674 5671 5668 5665 5662 5658 5656 5651 5645 5641 5636 5633 5631 5626